Regional Weather Roundup
Issued by NWS

Home | Current Version | Previous Version | Graphics & Text | Print | Product List | Glossary On
Versions: 1 2 3 4 5 6 7 8 9 10 11 12 13 14 15 16 17 18 19 20 21 22 23 24 25 26 27 28 29 30 31 32 33 34 35 36 37 38 39 40 41 42 43 44 45 46 47 48 49 50
000
ASUS43 KDTX 311401
RWRMI
MICHIGAN HOURLY REGIONAL WEATHER ROUNDUP
NATIONAL WEATHER SERVICE DETROIT/PONTIAC MI
1000 AM EDT MON AUG 31 2015

NOTE: "FAIR" INDICATES FEW OR NO CLOUDS BELOW 12,000 FEET WITH NO
SIGNIFICANT WEATHER AND/OR OBSTRUCTION TO VISIBILITY.

MIZ047>049-052>055-059>063-066>070-074>076-081>083-311500-
SOUTHEAST LOWER MICHIGAN

CITY           SKY/WX    TMP DP  RH WIND       PRES   REMARKS
ADRIAN         MOSUNNY   73  69  87 NW5       30.11R FOG
ALMA           CLOUDY    65  65  97 CALM      30.09S FOG
ANN ARBOR      MOSUNNY   73  67  81 W10       30.10R HAZE
BAD AXE        PTSUNNY   67  67 100 W7        30.07S FOG
CARO           FOG       64  64 100 SW6       30.08R VSB 1/4
DETROIT CITY   MOSUNNY   73  65  75 W7        30.09R
DETROIT        MOSUNNY   74  67  78 W8        30.10R
FLINT          CLOUDY    67  63  87 W6        30.10R FOG
GROSSE ILE     MOSUNNY   73  70  88 W5        30.08S
HILLSDALE      MOSUNNY   71  71 100 CALM      30.12R FOG
HOWELL         CLOUDY    64  64  99 W3        30.10S FOG

CITY           SKY/WX    TMP DP  RH WIND       PRES   REMARKS
JACKSON        CLOUDY    69  67  93 W5        30.11R FOG
LAMBERTVILLE   SUNNY     74  71  88 CALM      30.10S FOG
LANSING        FOG       64  62  93 SW6       30.11R VSB 1
LAPEER         CLOUDY    65  64  96 W3        30.10R FOG
MASON          CLOUDY    63  61  93 CALM      30.11S FOG
MONROE         MOSUNNY   73  69  87 NW5       30.09R
MT. CLEMENS    MOSUNNY   70  65  84 W8        30.07R
PONTIAC        CLOUDY    65  62  90 W10       30.09R FOG
PORT HOPE        N/A     70  65  84 SW7       30.04S
PORT HURON     PTSUNNY   68  68 100 W5        30.09R
TRI CITIES     CLOUDY    66  63  90 SW9       30.09R FOG
MIDLAND        CLOUDY    65  64  96 SW3       30.07S FOG
TROY           MOSUNNY   70  64  82 W8        30.11R
SAGINAW HB     CLOUDY    63  63 100 SW6       30.08S FOG
$$
MIZ043>046-050>051-056>058-064>065-071>073-077>080-311500-
SOUTHWEST LOWER MICHIGAN

CITY           SKY/WX    TMP DP  RH WIND       PRES   REMARKS
BATTLE CREEK   CLOUDY    70  66  87 SW3       30.11R FOG
BENTON HARBOR  CLOUDY    68  66  93 CALM      30.08S FOG
BIG RAPIDS     CLOUDY    65  64  99 CALM      30.08S
COLDWATER      SUNNY     71  70  99 CALM      30.11R FOG
FREMONT        CLOUDY    65  65 100 W5        30.08S FOG
HOLLAND        MOSUNNY   68  65  90 CALM      30.10R FOG
GRAND RAPIDS   FOG       65  63  93 CALM      30.10S VSB 3/4
IONIA          CLOUDY    65  65  99 CALM      30.09S FOG
KALAMAZOO      CLOUDY    68  65  90 SW3       30.11R FOG
LUDINGTON      MOSUNNY   71  67  88 SW8       30.07S FOG
MARSHALL       CLOUDY   N/A N/A N/A CALM      30.11R FOG
MOUNT PLEASANT CLOUDY    67  65  93 W5        30.08R FOG
MUSKEGON       MOSUNNY   67  63  87 CALM      30.09R FOG
SOUTH HAVEN    MOSUNNY   69  67  92 CALM      30.08S FOG
$$
MIZ016>042-311500-
NORTHERN LOWER MICHIGAN

CITY           SKY/WX    TMP DP  RH WIND       PRES   REMARKS
ALPENA         CLOUDY    67  64  90 SW6       30.03S
BEAVER ISLAND  CLOUDY    66  64  93 SW7       30.00S
BELLAIRE       CLOUDY    67  64  90 S6        30.03S
CADILLAC       CLOUDY    65  64  97 SW7       30.07S FOG
CHARLEVOIX     CLOUDY    69  66  92 SW10      30.04S
FRANKFORT      MOSUNNY   69  65  90 SW7       30.04S
GAYLORD        FOG       64  64 100 SW8       30.05S VSB 1
GRAYLING       FOG       64  63  98 SW5       30.07S VSB 1
HARBOR SPRINGS CLOUDY    67  64  93 SW7       30.02R
HOUGHTON LAKE  FOG       64  63  96 W3        30.08R VSB 1
MANISTEE       CLOUDY    64  63  94 S5        30.06S
OSCODA         SUNNY     71  65  83 W5        30.04R
PELLSTON       CLOUDY    68  64  87 SW9       30.02R
ROGERS CITY    CLOUDY    66  63  92 SW3       30.03S FOG
TRAVERSE CITY  CLOUDY    69  64  84 W7        30.03S
$$
MIZ007>008-015-311500-
EASTERN UPPER MICHIGAN

CITY           SKY/WX    TMP DP  RH WIND       PRES   REMARKS
KINROSS        CLOUDY    66  64  94 SW3       30.00S
MACKINAC ISLAN CLOUDY    67  65  94 SW10      30.00S FOG
NEWBERRY       FOG       64  64 100 S3        29.99S VSB 1/2
S. S. MARIE    CLOUDY    67  64  90 SW5       29.99S FOG
$$
MIZ004>006-011>014-085-311500-
CENTRAL UPPER MICHIGAN

CITY           SKY/WX    TMP DP  RH WIND       PRES   REMARKS
MANISTIQUE     FOG       64  63  97 CALM      29.99R VSB 1/4
ESCANABA       CLOUDY    63  63 100 SW3       29.99R VSB 1/4
MENOMINEE      CLOUDY    64  61  88 W5        30.01R
SAWYER-GWINN   SUNNY     64  63  94 SW5       29.99R
$$
MIZ001>003-009>011-084-311500-
WESTERN UPPER MICHIGAN

CITY           SKY/WX    TMP DP  RH WIND       PRES   REMARKS
IRON MOUNTAIN  MOSUNNY   65  61  87 CALM      29.99S
HOUGHTON       MOSUNNY   64  62  93 S3        29.92F
IRONWOOD       SUNNY     68  63  83 S10       29.92S
$$

ABBREVIATIONS USED IN REMARKS
   TC - TEMPERATURE IN CELSIUS
  WCI - WIND CHILL INDEX
   HX - HEAT INDEX
  VSB - VISIBILITY




USA.gov is the U.S. government's official web portal to all federal, state and local government web resources and services.